GW5584 Weather Reports


time (UTC)temp
C
wind
direction
speed
KPH
gust
KPH
rain 1hr
cm
rain 24hr
cm
rain mn
cm
humidity
%
barometer
mb
20260507043258 8 0 3.2 3.2 0.00 0.00 0.00 67 1019.1
20260507042754 8 359 3.2 4.8 0.00 0.00 0.00 66 1019.0
20260507042249 8 356 1.6 4.8 0.00 0.00 0.00 65 1019.2
20260507041747 8 0 3.2 6.4 0.00 0.00 0.00 65 1019.1
20260507041243 8 21 1.6 4.8 0.00 0.00 0.00 67 1019.2
20260507040741 8 7 3.2 4.8 0.00 0.00 0.00 68 1019.0
20260507040236 8 6 1.6 3.2 0.00 0.00 0.00 67 1018.9
20260507035732 8 352 3.2 3.2 0.00 0.00 0.00 65 1019.0
20260507035228 9 7 3.2 3.2 0.00 0.00 0.00 62 1019.0
20260507034726 9 36 0.0 3.2 0.00 0.00 0.00 61 1019.0
20260507034223 9 15 3.2 4.8 0.00 0.00 0.00 60 1019.0
20260507033721 9 3 1.6 4.8 0.00 0.00 0.00 65 1018.9
20260507033218 10 4 3.2 6.4 0.00 0.00 0.00 61 1019.0
20260507032716 10 349 6.4 6.4 0.00 0.00 0.00 59 1018.9
20260507032211 10 1 4.8 6.4 0.00 0.00 0.00 61 1018.8
20260507031708 10 19 3.2 4.8 0.00 0.00 0.00 61 1018.7
20260507031205 10 28 3.2 4.8 0.00 0.00 0.00 63 1018.8
20260507030701 10 29 1.6 4.8 0.00 0.00 0.00 60 1018.7
20260507030159 10 357 1.6 3.2 0.00 0.00 0.00 62 1018.6
20260507025656 10 19 1.6 3.2 0.00 0.00 0.00 63 1018.7
20260507025153 10 17 3.2 3.2 0.00 0.00 0.00 62 1018.6
20260507024651 10 10 3.2 4.8 0.00 0.00 0.00 62 1018.5
20260507024148 10 4 3.2 3.2 0.00 0.00 0.00 61 1018.4
20260507023643 10 4 3.2 3.2 0.00 0.00 0.00 64 1018.4
20260507023141 10 6 3.2 4.8 0.00 0.00 0.00 60 1018.5
20260507022638 10 12 3.2 3.2 0.00 0.00 0.00 62 1018.4
20260507022134 10 10 3.2 3.2 0.00 0.00 0.00 60 1018.4
20260507021630 10 9 0.0 3.2 0.00 0.00 0.00 60 1018.6
20260507021126 10 3 1.6 3.2 0.00 0.00 0.00 59 1018.6
20260507020624 10 7 1.6 3.2 0.00 0.00 0.00 60 1018.4
20260507020120 10 1 1.6 3.2 0.00 0.00 0.00 61 1018.4
20260507015619 10 17 0.0 3.2 0.00 0.00 0.00 60 1018.2
20260507015116 11 8 1.6 3.2 0.00 0.00 0.00 58 1018.2
20260507014612 11 0 0.0 3.2 0.00 0.00 0.00 60 1018.4
20260507014108 11 353 1.6 3.2 0.00 0.00 0.00 57 1017.9
20260507013605 11 354 0.0 6.4 0.00 0.00 0.00 57 1018.1
20260507013102 11 2 1.6 3.2 0.00 0.00 0.00 57 1018.1
20260507012559 11 6 3.2 4.8 0.00 0.00 0.00 56 1018.0
20260507012055 11 6 3.2 3.2 0.00 0.00 0.00 56 1018.0
20260507011553 11 32 0.0 1.6 0.00 0.00 0.00 57 1017.9
20260507011044 11 23 1.6 1.6 0.00 0.00 0.00 56 1017.8
20260507010543 11 4 0.0 3.2 0.00 0.00 0.00 55 1017.8
20260507010040 11 21 1.6 3.2 0.00 0.00 0.00 56 1017.8
20260507005538 12 329 0.0 3.2 0.00 0.00 0.00 53 1017.6
20260507005034 12 9 0.0 1.6 0.00 0.00 0.00 52 1017.8
20260507004531 12 0 0.0 4.8 0.00 0.00 0.00 53 1017.7
20260507004029 13 25 1.6 3.2 0.00 0.00 0.00 53 1017.7
20260507003524 13 141 0.0 3.2 0.00 0.00 0.00 52 1017.6
20260507003019 13 358 3.2 3.2 0.00 0.00 0.00 48 1017.6
20260507002516 13 330 6.4 6.4 0.00 0.00 0.00 47 1017.6
20260507002012 13 277 1.6 6.4 0.00 0.00 0.00 52 1017.6
20260507001509 13 285 0.0 4.8 0.00 0.00 0.00 51 1017.3
20260507001006 13 357 3.2 3.2 0.00 0.00 0.00 50 1017.5
20260507000502 13 135 0.0 3.2 0.00 0.00 0.00 52 1017.5
20260506235957 13 0 1.6 3.2 0.00 0.00 0.00 48 1017.3
20260506235455 14 33 3.2 4.8 0.00 0.00 0.00 50 1017.5
20260506234951 13 351 4.8 6.4 0.00 0.00 0.00 46 1017.1
20260506234449 13 2 3.2 4.8 0.00 0.00 0.00 47 1017.2
20260506233946 14 24 3.2 6.4 0.00 0.00 0.00 49 1017.0
20260506233442 14 46 0.0 8.0 0.00 0.00 0.00 49 1016.8
20260506232939 14 89 0.0 6.4 0.00 0.00 0.00 52 1016.8
20260506232435 14 304 4.8 9.7 0.00 0.00 0.00 47 1016.7
20260506231931 14 352 1.6 8.0 0.00 0.00 0.00 50 1016.5
20260506231429 14 184 3.2 9.7 0.00 0.00 0.00 50 1016.4
20260506230926 14 351 6.4 8.0 0.00 0.00 0.00 47 1016.3
20260506230422 15 256 3.2 8.0 0.00 0.00 0.00 46 1016.2
20260506225919 15 5 1.6 8.0 0.00 0.00 0.00 46 1016.3
20260506225416 15 56 6.4 9.7 0.00 0.00 0.00 47 1016.4
20260506224913 15 352 4.8 9.7 0.00 0.00 0.00 45 1016.3
20260506224411 15 312 6.4 9.7 0.00 0.00 0.00 46 1016.5
20260506223906 15 349 6.4 9.7 0.00 0.00 0.00 45 1016.3
20260506223402 15 308 3.2 8.0 0.00 0.00 0.00 46 1016.4
20260506222859 16 212 3.2 6.4 0.00 0.00 0.00 45 1016.6
20260506222355 17 265 1.6 6.4 0.00 0.00 0.00 46 1016.3
20260506221853 17 1 4.8 6.4 0.00 0.00 0.00 44 1016.3
20260506221350 16 237 3.2 6.4 0.00 0.00 0.00 44 1016.5
20260506220847 17 78 4.8 11.3 0.00 0.00 0.00 42 1016.5
20260506220343 16 38 4.8 8.0 0.00 0.00 0.00 46 1016.3
20260506215840 16 226 3.2 8.0 0.00 0.00 0.00 45 1016.3
20260506215336 15 352 3.2 4.8 0.00 0.00 0.00 47 1016.3
20260506214832 15 72 1.6 6.4 0.00 0.00 0.00 50 1016.3
20260506214329 15 322 4.8 6.4 0.00 0.00 0.00 48 1016.3
20260506213827 16 55 3.2 9.7 0.00 0.00 0.00 52 1016.4
20260506213324 16 348 4.8 4.8 0.00 0.00 0.00 48 1016.5
20260506212821 15 349 8.0 9.7 0.00 0.00 0.00 48 1016.6
20260506212317 15 17 3.2 9.7 0.00 0.00 0.00 48 1016.4
20260506211812 16 317 3.2 6.4 0.00 0.00 0.00 46 1016.8
20260506211308 16 341 6.4 8.0 0.00 0.00 0.00 46 1016.7
20260506210806 16 355 4.8 8.0 0.00 0.00 0.00 49 1017.0
20260506210302 15 339 3.2 4.8 0.00 0.00 0.00 47 1016.8
20260506205800 15 348 8.0 9.7 0.00 0.00 0.00 51 1017.0
20260506205255 15 301 4.8 8.0 0.00 0.00 0.00 47 1017.1
20260506204752 16 287 3.2 4.8 0.00 0.00 0.00 52 1017.0
20260506204250 16 58 1.6 3.2 0.00 0.00 0.00 50 1017.1
20260506203747 15 353 3.2 8.0 0.00 0.00 0.00 52 1017.5
20260506203245 15 143 16.1 17.7 0.00 0.00 0.00 53 1017.2
20260506202742 15 129 3.2 8.0 0.00 0.00 0.00 50 1017.8
20260506202238 15 116 4.8 9.7 0.00 0.00 0.00 53 1017.5
20260506201735 16 4 4.8 11.3 0.00 0.00 0.00 47 1017.3
20260506201232 16 35 4.8 8.0 0.00 0.00 0.00 48 1017.5
20260506200729 16 170 0.0 6.4 0.00 0.00 0.00 54 1017.6
20260506200225 16 354 8.0 11.3 0.00 0.00 0.00 49 1017.7
20260506195722 15 264 4.8 8.0 0.00 0.00 0.00 49 1017.7
20260506195218 15 269 3.2 8.0 0.00 0.00 0.00 49 1017.9
20260506194715 16 302 6.4 9.7 0.00 0.00 0.00 51 1017.5
20260506194212 16 22 0.0 6.4 0.00 0.00 0.00 52 1017.9
20260506193710 16 357 4.8 6.4 0.00 0.00 0.00 51 1017.9
20260506193201 15 21 3.2 14.5 0.00 0.00 0.00 51 1017.9
20260506192657 15 164 1.6 6.4 0.00 0.00 0.00 51 1018.0
20260506192154 15 331 11.3 11.3 0.00 0.00 0.00 52 1017.9
20260506191651 15 338 4.8 9.7 0.00 0.00 0.00 52 1017.9
20260506191147 15 311 6.4 9.7 0.00 0.00 0.00 53 1018.0
20260506190644 15 269 3.2 6.4 0.00 0.00 0.00 55 1018.1
20260506190141 14 173 0.0 16.1 0.00 0.00 0.00 57 1018.1
20260506185638 14 322 3.2 11.3 0.00 0.00 0.00 60 1017.9
20260506185134 13 115 3.2 4.8 0.00 0.00 0.00 60 1018.3
20260506184632 13 260 1.6 6.4 0.00 0.00 0.00 57 1018.2
20260506184129 13 30 3.2 6.4 0.00 0.00 0.00 58 1018.5
20260506183625 13 89 0.0 3.2 0.00 0.00 0.00 60 1018.6
20260506183121 13 116 0.0 3.2 0.00 0.00 0.00 65 1018.9
20260506182619 13 155 3.2 6.4 0.00 0.00 0.00 57 1018.8
20260506182116 13 98 1.6 4.8 0.00 0.00 0.00 58 1019.1
20260506181614 13 89 0.0 4.8 0.00 0.00 0.00 59 1019.1
20260506181111 13 5 3.2 4.8 0.00 0.00 0.00 59 1018.9
20260506180607 12 152 0.0 6.4 0.00 0.00 0.00 58 1019.0
20260506180104 13 19 0.0 3.2 0.00 0.00 0.00 57 1019.0
20260506175600 13 155 0.0 4.8 0.00 0.00 0.00 57 1019.2
20260506175056 13 101 3.2 8.0 0.00 0.00 0.00 63 1019.2
20260506174555 13 132 4.8 6.4 0.00 0.00 0.00 59 1019.1
20260506174051 13 314 3.2 6.4 0.00 0.00 0.00 58 1019.1
20260506173549 13 224 1.6 6.4 0.00 0.00 0.00 61 1019.1
20260506173045 12 2 3.2 8.0 0.00 0.00 0.00 57 1018.9
20260506172543 12 342 0.0 4.8 0.00 0.00 0.00 59 1019.1
20260506172039 12 275 1.6 6.4 0.00 0.00 0.00 57 1019.1
20260506171537 12 137 3.2 6.4 0.00 0.00 0.00 62 1019.1
20260506171034 12 138 3.2 4.8 0.00 0.00 0.00 63 1018.9
20260506170532 12 93 0.0 4.8 0.00 0.00 0.00 58 1019.0
20260506170029 12 86 0.0 9.7 0.00 0.00 0.00 66 1018.9
20260506165527 12 211 3.2 9.7 0.00 0.00 0.00 61 1018.9
20260506165023 12 69 4.8 8.0 0.00 0.00 0.00 62 1019.0
20260506164520 12 11 4.8 6.4 0.00 0.00 0.00 62 1019.0
20260506164018 12 274 1.6 6.4 0.00 0.00 0.00 65 1018.8
20260506163514 12 176 9.7 11.3 0.00 0.00 0.00 59 1018.4
20260506163009 12 310 4.8 11.3 0.00 0.00 0.00 62 1018.0
20260506162506 12 146 6.4 9.7 0.00 0.00 0.00 62 1018.3
20260506162003 12 20 3.2 6.4 0.00 0.00 0.00 62 1018.4
20260506161501 12 9 4.8 9.7 0.00 0.00 0.00 61 1018.4
20260506160958 12 154 6.4 9.7 0.00 0.00 0.00 63 1018.5
20260506160455 12 48 3.2 8.0 0.00 0.00 0.00 60 1018.6
20260506155952 12 311 1.6 8.0 0.00 0.00 0.00 65 1018.7
20260506155450 12 286 4.8 6.4 0.00 0.00 0.00 62 1018.5
20260506153616 11 162 8.0 14.5 0.00 0.00 0.00 67 1018.3
20260506153114 11 319 8.0 9.7 0.00 0.00 0.00 65 1018.3
20260506152611 11 133 3.2 9.7 0.00 0.00 0.00 69 1018.2
20260506152108 11 301 4.8 9.7 0.00 0.00 0.00 66 1018.2
20260506151606 11 311 4.8 9.7 0.00 0.00 0.00 68 1018.4
20260506151103 10 137 4.8 14.5 0.00 0.00 0.00 71 1018.2
20260506150600 10 245 6.4 6.4 0.00 0.00 0.00 71 1018.0
20260506150057 10 91 0.0 6.4 0.00 0.00 0.00 74 1018.2
20260506145553 9 345 6.4 8.0 0.00 0.00 0.00 73 1018.4
20260506145051 10 314 4.8 8.0 0.00 0.00 0.00 74 1018.3
20260506144547 9 60 3.2 8.0 0.00 0.00 0.00 75 1018.6
20260506144044 9 124 3.2 6.4 0.00 0.00 0.00 77 1018.3
20260506143542 9 0 4.8 8.0 0.00 0.00 0.00 76 1018.6
20260506143041 9 316 4.8 8.0 0.00 0.00 0.00 75 1018.3
20260506142538 9 182 1.6 17.7 0.00 0.00 0.00 75 1018.2
20260506142036 9 42 3.2 6.4 0.00 0.00 0.00 75 1018.1
20260506141533 8 94 3.2 8.0 0.00 0.00 0.00 76 1017.9
20260506141032 8 350 1.6 6.4 0.00 0.00 0.00 79 1017.9
20260506140529 8 302 12.9 12.9 0.00 0.00 0.00 78 1017.8
20260506140026 8 63 1.6 6.4 0.00 0.00 0.00 78 1018.1
20260506135523 8 205 3.2 8.0 0.00 0.00 0.00 81 1018.2
20260506135019 8 320 6.4 11.3 0.00 0.00 0.00 79 1018.1
20260506134515 8 359 11.3 11.3 0.00 0.00 0.00 81 1018.1
20260506134012 8 173 0.0 6.4 0.00 0.00 0.00 84 1017.8
20260506133509 8 32 4.8 6.4 0.00 0.00 0.00 84 1017.9
20260506133000 7 354 3.2 11.3 0.00 0.00 0.00 84 1017.8
20260506132457 8 315 4.8 6.4 0.00 0.00 0.00 86 1017.9
20260506131955 7 98 1.6 9.7 0.00 0.00 0.00 86 1017.8
20260506131451 7 92 3.2 4.8 0.00 0.00 0.00 87 1017.5
20260506130948 7 272 1.6 8.0 0.00 0.00 0.00 87 1017.6
20260506130445 7 323 3.2 6.4 0.00 0.00 0.00 87 1017.9
20260506125942 7 72 3.2 6.4 0.00 0.00 0.00 87 1017.8
20260506125441 7 38 0.0 4.8 0.00 0.00 0.00 87 1017.9
20260506124938 7 332 1.6 6.4 0.00 0.00 0.00 87 1018.0
20260506124436 7 335 1.6 8.0 0.00 0.00 0.00 88 1017.9
20260506123934 7 359 3.2 4.8 0.00 0.00 0.00 88 1017.6
20260506123431 7 12 0.0 6.4 0.00 0.00 0.00 89 1017.7
20260506122928 7 17 3.2 6.4 0.00 0.00 0.00 89 1017.7
20260506122425 7 26 3.2 6.4 0.00 0.00 0.00 89 1017.7
20260506121924 7 205 3.2 4.8 0.00 0.00 0.00 90 1017.8
20260506121420 7 20 3.2 9.7 0.00 0.00 0.00 90 1017.7
20260506120917 7 37 6.4 9.7 0.00 0.00 0.00 89 1017.6
20260506120415 7 50 3.2 4.8 0.00 0.00 0.00 90 1017.9
20260506115912 6 45 3.2 6.4 0.00 0.00 0.00 90 1017.6
20260506115410 7 12 3.2 8.0 0.00 0.00 0.00 91 1017.6
20260506114908 6 9 6.4 8.0 0.00 0.00 0.00 91 1017.7
20260506114405 6 9 6.4 8.0 0.00 0.00 0.00 91 1017.6
20260506113904 6 13 4.8 11.3 0.00 0.00 0.00 90 1017.5
20260506113401 6 9 3.2 4.8 0.00 0.00 0.00 91 1016.9
20260506112857 6 326 6.4 9.7 0.00 0.00 0.00 90 1016.7
20260506112355 6 357 0.0 4.8 0.00 0.00 0.00 90 1016.8
20260506111852 6 329 4.8 4.8 0.00 0.00 0.00 91 1016.7
20260506111350 6 26 3.2 6.4 0.00 0.00 0.00 91 1016.6
20260506110847 7 10 3.2 4.8 0.00 0.00 0.00 90 1016.5
20260506110344 6 345 3.2 6.4 0.00 0.00 0.00 89 1016.5
20260506105841 7 358 3.2 4.8 0.00 0.00 0.00 90 1016.5
20260506105338 6 61 0.0 4.8 0.00 0.00 0.00 89 1016.4
20260506104835 6 314 3.2 6.4 0.00 0.00 0.00 89 1016.2
20260506104333 6 17 1.6 4.8 0.00 0.00 0.00 90 1016.0
20260506103830 6 298 4.8 4.8 0.00 0.00 0.00 90 1015.8
20260506103327 6 64 3.2 3.2 0.00 0.00 0.00 90 1015.7
20260506102825 6 24 1.6 6.4 0.00 0.00 0.00 90 1015.5
20260506102323 6 18 3.2 4.8 0.00 0.00 0.00 90 1015.4
20260506101820 6 0 4.8 4.8 0.00 0.00 0.00 90 1015.2
20260506101315 6 344 3.2 6.4 0.00 0.00 0.00 89 1015.5
20260506100814 6 327 1.6 4.8 0.00 0.00 0.00 89 1015.8
20260506100312 6 347 3.2 3.2 0.00 0.00 0.00 89 1015.4
20260506095810 6 3 3.2 4.8 0.00 0.00 0.00 90 1015.3
20260506095307 7 3 3.2 3.2 0.00 0.00 0.00 91 1015.4
20260506094804 6 317 3.2 4.8 0.00 0.00 0.00 90 1015.0
20260506094302 7 0 1.6 3.2 0.00 0.00 0.00 91 1014.9
20260506093800 6 321 1.6 3.2 0.00 0.00 0.00 90 1014.8
20260506093256 6 18 0.0 3.2 0.00 0.00 0.00 90 1014.6
20260506092755 6 127 3.2 4.8 0.00 0.00 0.00 90 1014.4
20260506092252 7 51 0.0 4.8 0.00 0.00 0.00 91 1014.3
20260506091749 7 120 3.2 4.8 0.00 0.00 0.00 90 1014.4
20260506091247 6 85 3.2 4.8 0.00 0.00 0.00 90 1014.9
20260506090744 6 326 0.0 1.6 0.00 0.00 0.00 89 1015.6
20260506090241 7 326 0.0 1.6 0.00 0.00 0.00 89 1014.9
20260506085738 7 196 3.2 3.2 0.00 0.00 0.00 88 1014.8
20260506085234 7 116 1.6 3.2 0.00 0.00 0.00 89 1014.8
20260506084731 7 13 0.0 1.6 0.00 0.00 0.00 89 1014.8
20260506084227 6 293 1.6 3.2 0.00 0.00 0.00 88 1015.0
20260506083724 6 73 3.2 4.8 0.00 0.00 0.00 87 1014.6
20260506083222 6 22 0.0 3.2 0.00 0.00 0.00 88 1014.1
20260506082719 6 24 3.2 6.4 0.00 0.00 0.00 87 1013.7
20260506082214 6 149 3.2 3.2 0.00 0.00 0.00 88 1013.8
20260506081712 6 18 3.2 6.4 0.05 0.00 0.00 88 1013.5
20260506081210 6 265 1.6 3.2 0.05 0.00 0.00 89 1013.6
20260506080707 6 352 1.6 3.2 0.00 0.00 0.00 88 1013.5
20260506080203 6 21 0.0 4.8 0.00 0.00 0.00 88 1013.4
20260506073147 7 117 4.8 4.8 0.00 0.00 0.00 90 1013.4
20260506072644 6 137 3.2 6.4 0.00 0.00 0.00 89 1013.6
20260506072142 6 155 1.6 3.2 0.00 0.00 0.00 89 1013.9
20260506071639 6 6 3.2 3.2 0.00 0.00 0.00 90 1013.8
20260506071137 6 53 0.0 4.8 0.00 0.00 0.00 89 1014.2
20260506070633 6 256 0.0 3.2 0.00 0.00 0.00 89 1013.9
20260506070130 6 124 0.0 4.8 0.00 0.00 0.00 89 1014.0
20260506062108 7 23 0.0 3.2 0.00 0.00 0.00 90 1014.7
20260506061603 7 346 1.6 3.2 0.00 0.00 0.00 89 1014.6
20260506061101 7 53 3.2 3.2 0.00 0.00 0.00 89 1014.6
20260506060600 7 15 1.6 3.2 0.00 0.00 0.00 89 1014.4
20260506051028 7 335 0.0 6.4 0.00 0.00 0.00 92 1014.0
20260506050526 7 333 4.8 6.4 0.00 0.00 0.00 93 1013.8
20260506045017 7 341 4.8 4.8 0.00 0.94 0.94 94 1013.7
20260506044515 7 327 8.0 8.0 0.05 0.94 0.94 94 1013.5
20260506044011 7 20 3.2 6.4 0.05 0.94 0.94 94 1013.5
20260506043508 7 119 0.0 3.2 0.00 0.91 0.91 94 1013.6